KLM3105 LTFM-EHAM

Flight info

Callsign KLM3105
Flight time N/A
Altitude 34000
Route TUDBU DCT ETUBA DCT ELDET DCT BACAM DCT SODGO DCT INVED DCT DITIS DCT VARIK DCT KATCE DCT NORKU
Aircraft A321/M-SDE3FGHIRWY/LB1

Departure

Time 2026-05-01 14:28
Airport İstanbul Airport (LTFM)

Arrival

Time N/A
Airport Amsterdam Airport Schiphol (EHAM)
Time Latitude Longitude Altitude Speed Heading
2026-05-01 13:56 41.26698 28.73787 334 ft 0 kts 269°
2026-05-01 14:15 41.26698 28.73811 330 ft 4 kts 269°
2026-05-01 14:16 41.26699 28.73842 330 ft 4 kts 270°
2026-05-01 14:16 41.26694 28.73872 331 ft 4 kts 322°
2026-05-01 14:16 41.26673 28.73880 329 ft 4 kts
2026-05-01 14:16 41.26651 28.73878 330 ft 0 kts 358°
2026-05-01 14:17 41.26650 28.73878 330 ft 0 kts 358°
2026-05-01 14:19 41.26651 28.73878 330 ft 0 kts 358°
2026-05-01 14:20 41.26653 28.73878 329 ft 1 kts 358°
2026-05-01 14:20 41.26749 28.73875 331 ft 8 kts 359°
2026-05-01 14:20 41.26819 28.73874 333 ft 11 kts 359°
2026-05-01 14:21 41.26872 28.73827 331 ft 9 kts 287°
2026-05-01 14:21 41.26874 28.73726 330 ft 13 kts 269°
2026-05-01 14:21 41.26872 28.73588 333 ft 17 kts 269°
2026-05-01 14:22 41.26868 28.73304 331 ft 14 kts 269°
2026-05-01 14:22 41.26867 28.73187 332 ft 12 kts 269°
2026-05-01 14:22 41.26865 28.73064 334 ft 15 kts 266°
2026-05-01 14:22 41.26801 28.72991 333 ft 12 kts 185°
2026-05-01 14:23 41.26713 28.72992 330 ft 15 kts 178°
2026-05-01 14:23 41.26600 28.72995 331 ft 16 kts 179°
2026-05-01 14:23 41.26497 28.72998 331 ft 14 kts 179°
2026-05-01 14:23 41.26407 28.73000 334 ft 12 kts 179°
2026-05-01 14:24 41.26331 28.73002 333 ft 10 kts 179°
2026-05-01 14:24 41.26264 28.73003 331 ft 9 kts 179°
2026-05-01 14:24 41.26220 28.72968 331 ft 7 kts 248°
2026-05-01 14:24 41.26214 28.72896 334 ft 11 kts 269°
2026-05-01 14:25 41.26213 28.72767 334 ft 14 kts 269°
2026-05-01 14:25 41.26211 28.72645 334 ft 12 kts 269°
2026-05-01 14:25 41.26209 28.72541 330 ft 7 kts 269°
2026-05-01 14:25 41.26222 28.72525 332 ft 2 kts 350°
2026-05-01 14:26 41.26230 28.72524 332 ft 1 kts 355°
2026-05-01 14:26 41.26232 28.72524 330 ft 0 kts 358°
2026-05-01 14:26 41.26233 28.72524 330 ft 2 kts 358°
2026-05-01 14:27 41.26459 28.72520 331 ft 67 kts 359°
2026-05-01 14:27 41.27132 28.72507 334 ft 124 kts 359°
2026-05-01 14:27 41.28141 28.72488 336 ft 164 kts 360°
2026-05-01 14:28 41.30525 28.72443 1572 ft 166 kts
2026-05-01 14:28 41.31688 28.72438 2212 ft 172 kts
2026-05-01 14:28 41.32952 28.72460 2459 ft 191 kts
2026-05-01 14:28 41.34343 28.72490 2589 ft 211 kts
2026-05-01 14:29 41.35881 28.72522 2927 ft 232 kts
2026-05-01 14:29 41.37516 28.72541 3676 ft 238 kts
2026-05-01 14:30 41.42334 28.69979 5894 ft 256 kts 338°
2026-05-01 14:30 41.43939 28.68935 6679 ft 258 kts 338°
2026-05-01 14:30 41.45542 28.67894 7388 ft 261 kts 338°
2026-05-01 14:31 41.48853 28.65759 8679 ft 268 kts 336°
2026-05-01 14:31 41.50548 28.64672 9299 ft 273 kts 335°
2026-05-01 14:31 41.52270 28.63568 9916 ft 277 kts 335°
2026-05-01 14:31 41.54037 28.62434 10292 ft 291 kts 334°
2026-05-01 14:32 41.55919 28.61211 10433 ft 311 kts 332°
2026-05-01 14:32 41.57781 28.59580 10555 ft 330 kts 321°
2026-05-01 14:32 41.59469 28.57392 10684 ft 348 kts 312°
2026-05-01 14:32 41.61127 28.54950 11027 ft 358 kts 312°
2026-05-01 14:33 41.62813 28.52464 11586 ft 362 kts 312°
2026-05-01 14:33 41.64513 28.49958 12160 ft 365 kts 312°
2026-05-01 14:33 41.66207 28.47416 12756 ft 368 kts 308°
2026-05-01 14:33 41.67627 28.44561 13323 ft 370 kts 298°
2026-05-01 14:34 41.68702 28.41416 13895 ft 373 kts 293°
2026-05-01 14:34 41.69739 28.38222 14400 ft 376 kts 293°
2026-05-01 14:34 41.70786 28.35016 14932 ft 377 kts 293°
2026-05-01 14:34 41.71839 28.31792 15442 ft 379 kts 293°
2026-05-01 14:35 41.72895 28.28555 15954 ft 380 kts 293°
2026-05-01 14:35 41.73955 28.25300 16466 ft 381 kts 292°
2026-05-01 14:35 41.75000 28.22087 16970 ft 383 kts 292°
2026-05-01 14:35 41.76064 28.18812 17458 ft 385 kts 292°
2026-05-01 14:36 41.77135 28.15516 17914 ft 387 kts 292°
2026-05-01 14:36 41.78213 28.12201 18375 ft 389 kts 292°
2026-05-01 14:36 41.79370 28.08901 18778 ft 393 kts 298°
2026-05-01 14:36 41.80894 28.05849 19156 ft 396 kts 305°
2026-05-01 14:37 41.82565 28.02890 19545 ft 398 kts 305°
2026-05-01 14:37 41.84242 27.99917 19936 ft 401 kts 305°
2026-05-01 14:37 41.85924 27.96928 20318 ft 403 kts 305°
2026-05-01 14:37 41.87612 27.93917 20716 ft 405 kts 305°
2026-05-01 14:38 41.89305 27.90892 21110 ft 407 kts 305°
2026-05-01 14:38 41.91008 27.87845 21493 ft 409 kts 305°
2026-05-01 14:38 41.92717 27.84783 21886 ft 411 kts 305°
2026-05-01 14:38 41.94435 27.81704 22279 ft 413 kts 305°
2026-05-01 14:39 41.96166 27.78610 22659 ft 415 kts 306°
2026-05-01 14:39 41.98111 27.75715 23015 ft 419 kts 313°
2026-05-01 14:39 42.00169 27.72918 23395 ft 421 kts 313°
2026-05-01 14:39 42.02231 27.70107 23767 ft 423 kts 313°
2026-05-01 14:40 42.04298 27.67282 24086 ft 425 kts 313°
2026-05-01 14:40 42.06377 27.64432 24382 ft 427 kts 312°
2026-05-01 14:40 42.08459 27.61574 24686 ft 429 kts 312°
2026-05-01 14:40 42.10560 27.58688 24985 ft 431 kts 313°
2026-05-01 14:41 42.12660 27.55798 25278 ft 433 kts 312°
2026-05-01 14:41 42.14770 27.52891 25568 ft 435 kts 313°
2026-05-01 14:41 42.16886 27.49977 25844 ft 436 kts 313°
2026-05-01 14:41 42.19017 27.47042 26127 ft 438 kts 313°
2026-05-01 14:42 42.21152 27.44101 26402 ft 440 kts 313°
2026-05-01 14:42 42.23293 27.41147 26684 ft 442 kts 313°
2026-05-01 14:42 42.25418 27.38211 26965 ft 443 kts 313°
2026-05-01 14:42 42.27573 27.35229 27253 ft 445 kts 312°
2026-05-01 14:43 42.29736 27.32230 27608 ft 444 kts 312°
2026-05-01 14:43 42.31887 27.29242 28011 ft 443 kts 312°
2026-05-01 14:43 42.34035 27.26253 28398 ft 442 kts 312°
2026-05-01 14:43 42.36178 27.23271 28769 ft 442 kts 312°
2026-05-01 14:44 42.38317 27.20296 29153 ft 441 kts 312°
2026-05-01 14:44 42.42584 27.14353 29889 ft 440 kts 312°
2026-05-01 14:44 42.44709 27.11391 30235 ft 439 kts 312°
2026-05-01 14:45 42.46839 27.08423 30541 ft 438 kts 312°
2026-05-01 14:45 42.51086 27.02487 31080 ft 438 kts 312°
2026-05-01 14:45 42.53205 26.99520 31345 ft 438 kts 312°
2026-05-01 14:46 42.55326 26.96544 31619 ft 438 kts 312°
2026-05-01 14:46 42.59555 26.90595 32140 ft 438 kts 312°
2026-05-01 14:46 42.61641 26.87657 32396 ft 438 kts 312°
2026-05-01 14:47 42.63751 26.84681 32655 ft 438 kts 312°
2026-05-01 14:47 42.65861 26.81701 32916 ft 438 kts 312°
2026-05-01 14:47 42.67972 26.78719 33164 ft 437 kts 312°
2026-05-01 14:48 42.72193 26.72751 33631 ft 438 kts 312°
2026-05-01 14:48 42.74301 26.69765 33867 ft 438 kts 312°
2026-05-01 14:48 42.78520 26.63777 34245 ft 439 kts 312°
2026-05-01 14:49 42.86191 26.50873 34281 ft 438 kts 305°
2026-05-01 14:50 42.93432 26.37479 34288 ft 439 kts 305°
2026-05-01 14:51 42.98843 26.27453 34297 ft 439 kts 305°
2026-05-01 14:52 43.04265 26.17337 34306 ft 440 kts 305°
2026-05-01 14:53 43.09080 26.08340 34326 ft 440 kts 305°
2026-05-01 14:53 43.13300 26.00427 34315 ft 440 kts 305°
2026-05-01 14:54 43.16905 25.93644 34329 ft 440 kts 305°
2026-05-01 14:54 43.19899 25.88007 34313 ft 440 kts 305°
2026-05-01 14:55 43.23501 25.81217 34317 ft 440 kts 305°
2026-05-01 14:55 43.27094 25.74424 34313 ft 440 kts 305°
2026-05-01 14:56 43.30692 25.67614 34324 ft 440 kts 305°
2026-05-01 14:56 43.34255 25.60838 34332 ft 440 kts 305°
2026-05-01 14:57 43.37836 25.54009 34319 ft 440 kts 305°
2026-05-01 14:57 43.43203 25.43744 34318 ft 441 kts 305°
2026-05-01 14:58 43.46788 25.36875 34320 ft 442 kts 305°
2026-05-01 14:58 43.50372 25.29996 34323 ft 442 kts 305°
2026-05-01 14:59 43.53960 25.23113 34322 ft 442 kts 305°
2026-05-01 14:59 43.57547 25.16215 34322 ft 443 kts 305°
2026-05-01 15:00 43.62905 25.05824 34318 ft 443 kts 305°
2026-05-01 15:01 43.66473 24.98882 34337 ft 443 kts 305°
2026-05-01 15:01 43.70043 24.91934 34319 ft 443 kts 306°
2026-05-01 15:02 43.73616 24.84988 34331 ft 443 kts 306°
2026-05-01 15:02 43.77179 24.78019 34331 ft 443 kts 305°
2026-05-01 15:03 43.80734 24.71043 34324 ft 443 kts 306°
2026-05-01 15:03 43.84268 24.64108 34320 ft 443 kts 306°
2026-05-01 15:04 43.87815 24.57114 34321 ft 443 kts 306°
2026-05-01 15:04 43.91361 24.50119 34306 ft 443 kts 306°
2026-05-01 15:05 43.94906 24.43115 34317 ft 443 kts 306°
2026-05-01 15:05 43.98447 24.36098 34320 ft 443 kts 306°
2026-05-01 15:06 44.01982 24.29079 34319 ft 444 kts 306°
2026-05-01 15:06 44.05512 24.22046 34318 ft 444 kts 306°
2026-05-01 15:07 44.09042 24.14994 34311 ft 444 kts 306°
2026-05-01 15:07 44.12546 24.07985 34316 ft 444 kts 306°
2026-05-01 15:08 44.16068 24.00928 34314 ft 444 kts 306°
2026-05-01 15:08 44.19579 23.93856 34319 ft 444 kts 306°
2026-05-01 15:09 44.23090 23.86769 34318 ft 444 kts 306°
2026-05-01 15:09 44.26598 23.79672 34315 ft 444 kts 306°
2026-05-01 15:10 44.30366 23.72877 34314 ft 442 kts 314°
2026-05-01 15:10 44.36575 23.63339 34312 ft 442 kts 314°
2026-05-01 15:11 44.42767 23.53763 34302 ft 443 kts 314°
2026-05-01 15:12 44.46892 23.47353 34301 ft 443 kts 314°
2026-05-01 15:12 44.53076 23.37740 34284 ft 443 kts 314°
2026-05-01 15:14 44.63344 23.21671 34275 ft 444 kts 314°
2026-05-01 15:14 44.69524 23.11968 34271 ft 444 kts 314°
2026-05-01 15:15 44.77763 22.98968 34258 ft 446 kts 314°
2026-05-01 15:16 44.86007 22.85895 34257 ft 447 kts 315°
2026-05-01 15:18 44.95638 22.68604 34266 ft 449 kts 310°
2026-05-01 15:19 45.03193 22.54639 34269 ft 448 kts 312°
2026-05-01 15:19 45.08917 22.44193 34277 ft 448 kts 312°
2026-05-01 15:20 45.14597 22.33693 34277 ft 447 kts 312°
2026-05-01 15:21 45.18379 22.26685 34274 ft 447 kts 312°
2026-05-01 15:21 45.22160 22.19680 34279 ft 447 kts 312°
2026-05-01 15:22 45.27820 22.09143 34273 ft 448 kts 313°
2026-05-01 15:22 45.31590 22.02084 34265 ft 448 kts 313°
2026-05-01 15:23 45.35362 21.95021 34268 ft 449 kts 313°
2026-05-01 15:23 45.39140 21.87943 34262 ft 449 kts 313°
2026-05-01 15:24 45.42892 21.80897 34279 ft 450 kts 313°
2026-05-01 15:24 45.46660 21.73785 34273 ft 450 kts 313°
2026-05-01 15:25 45.50430 21.66652 34270 ft 451 kts 314°
2026-05-01 15:25 45.54205 21.59511 34270 ft 451 kts 314°
2026-05-01 15:26 45.57979 21.52343 34267 ft 452 kts 314°
2026-05-01 15:26 45.61743 21.45163 34262 ft 452 kts 314°
2026-05-01 15:27 45.65505 21.37965 34267 ft 452 kts 314°
2026-05-01 15:28 45.71154 21.27143 34265 ft 452 kts 315°
2026-05-01 15:28 45.74918 21.19917 34269 ft 452 kts 315°
2026-05-01 15:29 45.80525 21.09109 34271 ft 453 kts 315°
2026-05-01 15:30 45.88020 20.94575 34280 ft 453 kts 316°
2026-05-01 15:31 45.99226 20.72722 34294 ft 453 kts 316°
2026-05-01 15:32 46.06674 20.58123 34299 ft 452 kts 316°
2026-05-01 15:34 46.17805 20.36297 34304 ft 448 kts 318°